Погода в Согоме

Россия / Ханты-Мансийский автономный округ - Югра     60°30′25″N   68°04′33″E
темп.,
°C
ветер,
м/с
пор.,
м/с
влажн.,
%
обл.,
%
осадки,
мм/ч
давл.,
гПа
погр.,
м
24 мая, вт
вт2423:00+8юв3379100 0.1 100736
02:00+7ю369089 0.0 1008136
05:00+7ююв349176 0.0 1009117
08:00+9юв3684100 0.0 1010343
11:00+12юв357169 0.0 1010886
14:00+14ююв677383 0.2 1011667
17:00+16юз576919 1.1 1011897
20:00+14зсз22787 0.3 101321
25 мая, ср
ср2523:00+12всв2285100 0.3 101414
02:00+11в3389100 0.0 101530
05:00+11в359034 0.0 101691
08:00+16в4676100 0.0 1016496
11:00+20вюв6864100 0.0 1015876
14:00+24юв7850100 0.0 10141148
17:00+25юв6942100 0.0 10131740
20:00+21юв51160100 0.0 1013199
26 мая, чт
чт2623:00+17юв51073100 0.0 1013140
02:00+17юв51173100 0.0 1013184
05:00+17юв6137196 0.0 1012268
08:00+21юв8135690 0.0 1011588
11:00+26юв81242100 0.0 10101311
14:00+27юв9123886 0.0 10092721
17:00+26ююв610405 0.0 1008763
20:00+23юв585236 0.0 1006161
27 мая, пт
пт2723:00+19вюв8137786 0.5 1006302
02:00+16ююв3490100 1.8 100658
05:00+16юв51090100 2.3 1004363
08:00+17ююз4588100 1.5 1005520
11:00+16св1293100 4.7 1004274
14:00+10зсз81293100 4.6 1006494
17:00+9зсз7129176 6.6 1009570
20:00+11сз5118260 0.0 1010739
28 мая, сб
сб2823:00+8сз339059 0.0 101241
02:00+8зсз33866 0.0 101233
05:00+8зсз348113 0.0 101382
08:00+13сз345925 0.0 1013383
11:00+17сз34430 0.0 10131252
14:00+19ссз344273 0.0 10131693
17:00+20с3442100 0.0 10131830
20:00+16в3459100 0.0 101363